| Date | Time | Temp. (oF) | Dew Point (oF) | Rel. Hum. (%) | Press. (in.) | Wind Dir. | Wind Speed (mph) | Hourly Rainfall (in.) |
|
|---|---|---|---|---|---|---|---|---|---|
| 1 | 05/07 | 00:00 | 48 | 45 | 90 | 29.68 | E | 3 | 0.00 |
| 2 | 05/06 | 23:00 | 49 | 46 | 90 | 29.67 | ESE | 7 | 0.01 |
| 3 | 05/06 | 22:00 | 49 | 46 | 90 | 29.66 | E | 4 | 0.00 |
| 4 | 05/06 | 21:00 | 49 | 46 | 90 | 29.63 | ESE | 4 | 0.00 |
| 5 | 05/06 | 20:00 | 49 | 46 | 90 | 29.60 | E | 10 | 0.04 |
| 6 | 05/06 | 19:00 | 50 | 47 | 90 | 29.59 | ENE | 7 | 0.02 |
| 7 | 05/06 | 18:00 | 51 | 47 | 89 | 29.59 | ESE | 4 | 0.01 |
| 8 | 05/06 | 17:00 | 51 | 47 | 89 | 29.58 | SE | 0 | 0.03 |
| 9 | 05/06 | 16:00 | 51 | 47 | 88 | 29.58 | NE | 7 | 0.00 |
| 10 | 05/06 | 15:00 | 51 | 47 | 87 | 29.58 | ESE | 6 | 0.01 |
| 11 | 05/06 | 14:00 | 51 | 47 | 89 | 29.59 | ESE | 5 | 0.03 |
| 12 | 05/06 | 13:00 | 50 | 46 | 89 | 29.59 | ESE | 5 | 0.08 |
| 13 | 05/06 | 12:00 | 50 | 47 | 90 | 29.61 | ENE | 5 | 0.11 |
| 14 | 05/06 | 11:00 | 50 | 47 | 90 | 29.62 | NNE | 5 | 0.23 |
| 15 | 05/06 | 10:00 | 50 | 46 | 89 | 29.62 | NE | 0 | 0.10 |
| 16 | 05/06 | 09:00 | 50 | 46 | 88 | 29.61 | NNE | 0 | 0.10 |
| 17 | 05/06 | 08:00 | 51 | 46 | 84 | 29.61 | ESE | 2 | 0.03 |
| 18 | 05/06 | 07:00 | 52 | 46 | 80 | 29.61 | NNE | 0 | 0.00 |
| 19 | 05/06 | 06:00 | 52 | 45 | 79 | 29.59 | N | 0 | 0.00 |
| 20 | 05/06 | 05:00 | 52 | 46 | 80 | 29.59 | NE | 7 | 0.00 |
| 21 | 05/06 | 04:00 | 52 | 45 | 78 | 29.60 | WNW | 6 | 0.00 |
| 22 | 05/06 | 03:00 | 52 | 45 | 78 | 29.60 | W | 2 | 0.00 |
| 23 | 05/06 | 02:00 | 52 | 45 | 77 | 29.60 | ENE | 4 | 0.00 |
| 24 | 05/06 | 01:00 | 52 | 45 | 79 | 29.60 | NE | 4 | 0.00 |